Regional Weather Roundup
Issued by NWS San Diego, CA

Home | Current Version | Previous Version | Text Only | Print | Product List | Glossary On
Versions: 1 2 3 4 5 6 7 8 9 10 11 12 13 14 15 16 17 18 19 20 21 22 23 24 25 26 27 28 29 30 31 32 33 34 35 36 37 38 39 40 41 42 43 44 45 46 47 48 49 50
000
ASUS46 KSGX 230611
RWRSGX

SAN DIEGO HOURLY WEATHER ROUNDUP
NATIONAL WEATHER SERVICE SAN DIEGO CA
1100 PM PDT THU JUN 22 2017

NOTE: "FAIR" INDICATES FEW OR NO CLOUDS BELOW 12,000 FEET WITH NO
SIGNIFICANT WEATHER AND/OR OBSTRUCTIONS TO VISIBILITY.

CAZ042-043-060-061-PZZ750-775-230700-

GREATER SAN DIEGO AREA

CITY           SKY/WX    TMP DP  RH WIND       PRES   REMARKS
SAN DIEGO AP   CLOUDY    66  61  84 S5        29.90S
NATIONAL CITY    N/A     65  61  85 CALM      29.89S
CHULA VISTA      N/A     64  61  90 CALM      29.82R
IMPERIAL BEACH CLOUDY    64  60  87 SW3       29.89S
BROWN FIELD    CLOUDY    64  60  87 N3        29.89R
MIRAMAR MCAS   CLOUDY    66  59  78 SW3       29.89R
MONTGOMERY FLD CLOUDY    65  60  84 CALM      29.89S
GILLESPIE FLD  CLOUDY    66  59  77 CALM      29.89S

$$

NORTH SAN DIEGO COUNTY

CITY           SKY/WX    TMP DP  RH WIND       PRES   REMARKS
CAMP PENDLETON CLOUDY    63  61  93 CALM      29.88S
OCEANSIDE AP   CLOUDY    66  61  84 CALM      29.88R
OCEANSIDE HBR    N/A     64  61  90 CALM      29.91R
VISTA            N/A     64  59  83 CALM      29.86R
CARLSBAD       CLOUDY    64  61  90 S3        29.88R
DEL MAR          N/A     64  61  91 CALM      29.91R
LA JOLLA SCRIP   N/A     63  61  93 CALM      29.89R
FALLBROOK        N/A     64  63  98 CALM      29.89R
ESCONDIDO        N/A     64  60  85 SW3       29.89S
SAN MARCOS       N/A     64  58  83 CALM      29.90R
POWAY            N/A     65  59  80 CALM      29.89R

$$

EAST SAN DIEGO COUNTY

CITY           SKY/WX    TMP DP  RH WIND       PRES   REMARKS
RAMONA         MOCLDY    60  60 100 W5        29.90R
SANTEE LAKES     N/A     65  60  86 CALM      29.87R
LA MESA          N/A     63  59  89 CALM      29.82R
JAMUL            N/A     61  59  92 CALM      29.88R
DESCANSO N       N/A     65  43  46 NE6       29.74R
CAMPO            N/A     65  56  72 N5        29.91R

$$

ORANGE COUNTY AND THE LOS ANGELES BASIN

CITY           SKY/WX    TMP DP  RH WIND       PRES   REMARKS
JOHN WAYNE AP  CLOUDY    63  60  90 VRB5      29.89R
LAGUNA BEACH     N/A    N/A N/A N/A S6        29.84R
LAKE FOREST FR   N/A     62  57  83 CALM      29.77R
HUNTINGTON BCH   N/A     63  61  93 SE2       29.90R
LOS ALAMITOS   CLOUDY    63  59  87 S6        29.89R
FULLERTON      CLOUDY    65  61  87 S6        29.88R
LONG BEACH     CLOUDY    64  59  83 S5        29.89R
L.A. AP        CLOUDY    65  61  87 W5        29.89R

$$

THE INLAND EMPIRE

CITY           SKY/WX    TMP DP  RH WIND       PRES   REMARKS
CORONA         CLEAR     64  59  83 W6        29.89R
CHINO          CLEAR     65  59  81 W8        29.89R
ONTARIO        CLEAR     66  60  81 W8        29.88R
SAN BERNARDINO FAIR      72  59  64 W8        29.89R
RIVERSIDE AP   CLEAR     68  61  78 W7        29.88R
MORENO VALLEY    N/A     71  63  77 CALM        N/A
MARCH ARB      CLEAR     67  60  77 W5        29.89R
HORSETHIEF CYN   N/A     70  56  61 CALM      29.84R
PERRIS           N/A     69  59  71 SE3       29.87S
HEMET EAST       N/A     71  55  56 CALM      29.87R
FRENCH VALLEY  FAIR      64  57  77 S5        29.90S
TEMECULA         N/A     65  60  85 S3        29.94R

$$

SAN BERNARDINO AND RIVERSIDE COUNTY MOUNTAINS

CITY           SKY/WX    TMP DP  RH WIND       PRES   REMARKS
BIG BEAR AP    CLEAR     59  19  21 CALM      30.25R
PINE COVE        N/A     77  26  15 N3        29.73R

$$

SOUTHERN DESERT INCLUDING THE COACHELLA VALLEY

CITY           SKY/WX    TMP DP  RH WIND       PRES   REMARKS
PALM SPRINGS   CLEAR     95  54  25 NW13      29.72R
THOUSAND PALMS   N/A     93  55  27 NW5       29.67R
PALM DESERT      N/A     92  57  30 CALM      29.79S
THERMAL        CLEAR     87  67  51 S6        29.66R
BLYTHE         CLEAR     92  60  34 S12       29.68R
IMPERIAL AP    CLEAR     90  59  35 SE12      29.65R
EL CENTRO NAS  CLEAR     88  60  38 SE9       29.67R
YUMA AZ        CLEAR     86  63  45 S7        29.69R
MEXICALI       CLEAR     82  70  65 SE8       29.68R

$$

UPPER DESERT

CITY           SKY/WX    TMP DP  RH WIND       PRES   REMARKS
VICTORVILLE AP CLEAR     79  30  17 CALM      29.92R
HESPERIA         N/A     77  42  28 W3        29.84R
PALMDALE       CLEAR     84  38  19 SW13      29.89R
LANCASTER      CLEAR     84  47  27 SW13      29.88R
EDWARDS AFB    CLEAR     82  44  25 SW12      29.84S
DAGGETT        CLEAR     91  33  12 W8        29.80R
29 PALMS N     CLEAR     91  25   9 SW6       29.86R
NEEDLES        CLEAR    104  53  18 SW17      29.65R HX 102

$$

REGIONAL REPORTS

CITY           SKY/WX    TMP DP  RH WIND       PRES   REMARKS
SANTA BARBARA  CLOUDY    62  61  96 W5        29.87R
SANDBERG       CLEAR     76  50  40 SW6       30.07R
LAS VEGAS NV   PTCLDY   101  19   5 S8        29.73R
PHOENIX AZ     CLEAR     98  59  27 W17       29.69R HX  98
TIJUANA        CLOUDY    64  57  77 N5        29.91R FOG
ENSENADA NW      N/A     63  32  31 W3        29.85S

$$

OFFSHORE ISLANDS

CITY           SKY/WX    TMP DP  RH WIND       PRES   REMARKS
CATALINA ARPT  FOG       59  59 100 E3        29.91R VSB 1/4
SAN NICOLAS IS CLOUDY    56  50  81 CALM      29.89R

$$

MARINE AND OFFSHORE BUOY REPORTS

STATION/POSITION SKY/WX   TEMP    WIND        PRES    VSBY  SWELL
                          AIR SEA DIR/SP/G                  HT/PER/DIR
                          (F)     (DEG/KT/KT) (MB)    (MI)  (FT/S/D)
TANNER BANKS               59 62  280/  2/  6 1011.1          8/320/12
S CLEMENTE BASIN              64  260/  2/  6 1012.0R         7/170/14
SAN NICOLAS IS.               61                N/A           5/260/13
SO. S. ROSA ISLA           57 60  250/  2/  4 1011.4R         7/220/13
W. S. BARBARA CH           57 58  160/  2/  4 1011.1R         5/290/11
M. S. BARBARA CH           60 63  290/  2/  4 1012.0R         3/250/10
S. MONICA BASIN            60 67  180/  4/  6 1011.5R         3/160/15
S PEDRO CHANNEL               66                N/A           3/160/14
CMP PENDLETON NS              67                N/A           3/210/17
OCEANSIDE OFFSHR              67                N/A           3/220/18
TORREY PINES OTR              67                N/A           3/220/18
SAN DIEGO BAY                 68              1012.4R
POINT LOMA SOUTH              69                N/A           3/180/15

$$





USA.gov is the U.S. government's official web portal to all federal, state and local government web resources and services.